Time,TemperatureF,DewpointF,PressureIn,WindDirection,WindDirectionDegrees,WindSpeedMPH,WindSpeedGustMPH,Humidity,HourlyPrecipIn,Conditions,Clouds,dailyrainin,SoftwareType,DateUTC
2013-04-20 00:00:00,37.4,33.0,29.83,WNW,290,29.0,-999.0,83,-99.99,,,0.00,weatherlink.com 1.10,2013-04-20 04:00:00,
2013-04-20 00:15:00,36.9,33.0,29.82,NW,317,24.0,-999.0,85,-99.99,,,0.00,weatherlink.com 1.10,2013-04-20 04:15:00,
2013-04-20 00:30:00,36.0,33.0,29.84,NW,312,13.0,-999.0,87,-99.99,,,0.00,weatherlink.com 1.10,2013-04-20 04:30:00,
2013-04-20 00:45:00,35.3,31.0,29.85,NW,318,19.0,-999.0,85,-99.99,,,0.00,weatherlink.com 1.10,2013-04-20 04:45:00,
2013-04-20 01:00:00,35.2,30.0,29.86,WNW,300,15.0,-999.0,81,-99.99,,,0.00,weatherlink.com 1.10,2013-04-20 05:00:00,
2013-04-20 01:15:00,35.2,29.0,29.85,NW,305,29.0,-999.0,78,-99.99,,,0.00,weatherlink.com 1.10,2013-04-20 05:15:00,
2013-04-20 01:30:00,34.7,30.0,29.85,WNW,294,39.0,-999.0,82,-99.99,,,0.00,weatherlink.com 1.10,2013-04-20 05:30:00,
2013-04-20 01:45:00,34.5,30.0,29.85,WNW,296,30.0,-999.0,83,-99.99,,,0.00,weatherlink.com 1.10,2013-04-20 05:45:00,
2013-04-20 02:00:00,34.4,30.0,29.86,NW,318,26.0,-999.0,85,-99.99,,,0.00,weatherlink.com 1.10,2013-04-20 06:00:00,
2013-04-20 02:15:00,34.3,30.0,29.85,West,267,22.0,-999.0,85,-99.99,,,0.01,weatherlink.com 1.10,2013-04-20 06:15:00,
2013-04-20 02:30:00,34.0,29.0,29.86,South,190,8.0,-999.0,82,-99.99,,,0.01,weatherlink.com 1.10,2013-04-20 06:30:00,
2013-04-20 02:45:00,33.7,29.0,29.86,NW,310,28.0,-999.0,83,-99.99,,,0.01,weatherlink.com 1.10,2013-04-20 06:45:00,
2013-04-20 03:00:00,33.5,29.0,29.85,NW,321,17.0,-999.0,82,-99.99,,,0.01,weatherlink.com 1.10,2013-04-20 07:00:00,
2013-04-20 03:15:00,33.1,29.0,29.84,West,280,26.0,-999.0,84,-99.99,,,0.01,weatherlink.com 1.10,2013-04-20 07:15:00,
2013-04-20 03:30:00,32.8,29.0,29.86,NW,311,41.0,-999.0,84,-99.99,,,0.01,weatherlink.com 1.10,2013-04-20 07:30:00,
2013-04-20 03:45:00,32.5,28.0,29.85,NNW,332,11.0,-999.0,84,-99.99,,,0.01,weatherlink.com 1.10,2013-04-20 07:45:00,
2013-04-20 04:00:00,32.3,28.0,29.86,WNW,289,41.0,-999.0,84,-99.99,,,0.01,weatherlink.com 1.10,2013-04-20 08:00:00,
2013-04-20 04:15:00,32.0,28.0,29.88,NW,311,30.0,-999.0,84,-99.99,,,0.01,weatherlink.com 1.10,2013-04-20 08:15:00,
2013-04-20 04:30:00,31.7,28.0,29.90,NNW,337,32.0,-999.0,85,-99.99,,,0.01,weatherlink.com 1.10,2013-04-20 08:30:00,
2013-04-20 04:45:00,31.5,28.0,29.91,West,273,22.0,-999.0,85,-99.99,,,0.01,weatherlink.com 1.10,2013-04-20 08:45:00,
2013-04-20 05:00:00,31.1,28.0,29.93,WNW,298,8.0,-999.0,87,-99.99,,,0.01,weatherlink.com 1.10,2013-04-20 09:00:00,
2013-04-20 05:15:00,30.8,27.0,29.94,NW,319,19.0,-999.0,87,-99.99,,,0.01,weatherlink.com 1.10,2013-04-20 09:15:00,
2013-04-20 05:30:00,30.6,28.0,29.95,NW,304,20.0,-999.0,88,-99.99,,,0.01,weatherlink.com 1.10,2013-04-20 09:30:00,
2013-04-20 05:45:00,30.3,27.0,29.95,West,269,15.0,-999.0,88,-99.99,,,0.01,weatherlink.com 1.10,2013-04-20 09:45:00,
2013-04-20 06:00:00,29.9,27.0,29.95,WNW,291,22.0,-999.0,87,-99.99,,,0.01,weatherlink.com 1.10,2013-04-20 10:00:00,
2013-04-20 06:15:00,29.8,26.0,29.96,NW,323,19.0,-999.0,85,-99.99,,,0.01,weatherlink.com 1.10,2013-04-20 10:15:00,
2013-04-20 06:30:00,29.6,25.0,29.97,North,355,9.0,-999.0,84,-99.99,,,0.01,weatherlink.com 1.10,2013-04-20 10:30:00,
2013-04-20 06:45:00,29.4,25.0,29.99,North,10,15.0,-999.0,84,-99.99,,,0.01,weatherlink.com 1.10,2013-04-20 10:45:00,
2013-04-20 07:00:00,29.3,25.0,29.98,NNW,331,17.0,-999.0,84,-99.99,,,0.01,weatherlink.com 1.10,2013-04-20 11:00:00,
2013-04-20 07:15:00,29.2,25.0,29.99,NNW,344,11.0,-999.0,85,-99.99,,,0.01,weatherlink.com 1.10,2013-04-20 11:15:00,
2013-04-20 07:30:00,29.2,25.0,30.01,NNE,22,10.0,-999.0,85,-99.99,,,0.01,weatherlink.com 1.10,2013-04-20 11:30:00,
2013-04-20 07:45:00,29.4,25.0,30.02,NNW,345,5.0,-999.0,84,-99.99,,,0.01,weatherlink.com 1.10,2013-04-20 11:45:00,
2013-04-20 08:00:00,29.5,25.0,30.04,NW,313,3.0,-999.0,83,-99.99,,,0.01,weatherlink.com 1.10,2013-04-20 12:00:00,
2013-04-20 08:15:00,29.8,25.0,30.05,NW,321,3.0,-999.0,82,-99.99,,,0.01,weatherlink.com 1.10,2013-04-20 12:15:00,
2013-04-20 08:30:00,30.0,25.0,30.06,NW,321,12.0,-999.0,81,-99.99,,,0.01,weatherlink.com 1.10,2013-04-20 12:30:00,
2013-04-20 08:45:00,30.3,25.0,30.07,NNW,327,12.0,-999.0,80,-99.99,,,0.01,weatherlink.com 1.10,2013-04-20 12:45:00,
2013-04-20 09:00:00,31.0,25.0,30.08,North,360,16.0,-999.0,79,-99.99,,,0.01,weatherlink.com 1.10,2013-04-20 13:00:00,
2013-04-20 09:15:00,31.4,25.0,30.09,NW,325,12.0,-999.0,78,-99.99,,,0.01,weatherlink.com 1.10,2013-04-20 13:15:00,
2013-04-20 09:30:00,31.7,25.0,30.10,North,10,5.0,-999.0,77,-99.99,,,0.01,weatherlink.com 1.10,2013-04-20 13:30:00,
2013-04-20 09:45:00,32.6,26.0,30.11,NNW,342,9.0,-999.0,75,-99.99,,,0.01,weatherlink.com 1.10,2013-04-20 13:45:00,
2013-04-20 10:00:00,32.9,25.0,30.12,WNW,298,7.0,-999.0,74,-99.99,,,0.01,weatherlink.com 1.10,2013-04-20 14:00:00,
2013-04-20 10:15:00,33.4,26.0,30.13,West,263,9.0,-999.0,73,-99.99,,,0.01,weatherlink.com 1.10,2013-04-20 14:15:00,
2013-04-20 10:30:00,33.0,26.0,30.14,West,277,18.0,-999.0,74,-99.99,,,0.01,weatherlink.com 1.10,2013-04-20 14:30:00,
2013-04-20 10:45:00,33.8,26.0,30.14,West,272,14.0,-999.0,73,-99.99,,,0.01,weatherlink.com 1.10,2013-04-20 14:45:00,
2013-04-20 11:00:00,34.0,26.0,30.15,WNW,296,21.0,-999.0,72,-99.99,,,0.01,weatherlink.com 1.10,2013-04-20 15:00:00,
2013-04-20 11:15:00,35.5,27.0,30.16,WNW,296,13.0,-999.0,70,-99.99,,,0.01,weatherlink.com 1.10,2013-04-20 15:15:00,
2013-04-20 11:30:00,35.1,25.0,30.17,NW,307,19.0,-999.0,68,-99.99,,,0.01,weatherlink.com 1.10,2013-04-20 15:30:00,
2013-04-20 11:45:00,35.7,26.0,30.18,NNW,333,12.0,-999.0,69,-99.99,,,0.01,weatherlink.com 1.10,2013-04-20 15:45:00,
2013-04-20 12:00:00,37.3,27.0,30.18,WNW,300,21.0,-999.0,66,-99.99,,,0.01,weatherlink.com 1.10,2013-04-20 16:00:00,
2013-04-20 12:15:00,37.5,27.0,30.19,North,360,8.0,-999.0,66,-99.99,,,0.01,weatherlink.com 1.10,2013-04-20 16:15:00,
2013-04-20 12:30:00,37.3,25.0,30.19,NNW,339,15.0,-999.0,62,-99.99,,,0.01,weatherlink.com 1.10,2013-04-20 16:30:00,
2013-04-20 12:45:00,38.1,26.0,30.19,NW,316,20.0,-999.0,61,-99.99,,,0.01,weatherlink.com 1.10,2013-04-20 16:45:00,
2013-04-20 13:00:00,38.9,25.0,30.19,NNW,348,11.0,-999.0,58,-99.99,,,0.01,weatherlink.com 1.10,2013-04-20 17:00:00,
2013-04-20 13:15:00,39.7,26.0,30.19,NNW,336,12.0,-999.0,58,-99.99,,,0.01,weatherlink.com 1.10,2013-04-20 17:15:00,
2013-04-20 13:30:00,40.1,25.0,30.19,North,360,15.0,-999.0,55,-99.99,,,0.01,weatherlink.com 1.10,2013-04-20 17:30:00,
2013-04-20 13:45:00,41.6,26.0,30.19,WNW,298,7.0,-999.0,55,-99.99,,,0.01,weatherlink.com 1.10,2013-04-20 17:45:00,
2013-04-20 14:00:00,41.5,26.0,30.20,NNW,331,15.0,-999.0,54,-99.99,,,0.01,weatherlink.com 1.10,2013-04-20 18:00:00,
2013-04-20 14:15:00,41.7,26.0,30.20,NNW,336,12.0,-999.0,53,-99.99,,,0.01,weatherlink.com 1.10,2013-04-20 18:15:00,
2013-04-20 14:30:00,42.2,25.0,30.21,WNW,295,10.0,-999.0,50,-99.99,,,0.01,weatherlink.com 1.10,2013-04-20 18:30:00,
2013-04-20 14:45:00,42.5,25.0,30.21,WNW,298,6.0,-999.0,50,-99.99,,,0.01,weatherlink.com 1.10,2013-04-20 18:45:00,
2013-04-20 15:00:00,44.4,28.0,30.21,North,9,6.0,-999.0,53,-99.99,,,0.01,weatherlink.com 1.10,2013-04-20 19:00:00,
2013-04-20 15:15:00,43.6,26.0,30.22,NW,306,11.0,-999.0,50,-99.99,,,0.01,weatherlink.com 1.10,2013-04-20 19:15:00,
2013-04-20 15:30:00,44.3,27.0,30.21,WNW,288,10.0,-999.0,51,-99.99,,,0.01,weatherlink.com 1.10,2013-04-20 19:30:00,
2013-04-20 15:45:00,43.8,26.0,30.22,NW,326,20.0,-999.0,49,-99.99,,,0.01,weatherlink.com 1.10,2013-04-20 19:45:00,
2013-04-20 16:00:00,43.9,26.0,30.21,North,360,13.0,-999.0,49,-99.99,,,0.01,weatherlink.com 1.10,2013-04-20 20:00:00,
2013-04-20 16:15:00,44.3,26.0,30.22,NNW,345,9.0,-999.0,48,-99.99,,,0.01,weatherlink.com 1.10,2013-04-20 20:15:00,
2013-04-20 16:30:00,44.1,27.0,30.22,WNW,288,6.0,-999.0,51,-99.99,,,0.01,weatherlink.com 1.10,2013-04-20 20:30:00,
2013-04-20 16:45:00,45.0,27.0,30.23,WNW,282,16.0,-999.0,49,-99.99,,,0.01,weatherlink.com 1.10,2013-04-20 20:45:00,
2013-04-20 17:00:00,44.9,26.0,30.24,North,360,17.0,-999.0,48,-99.99,,,0.01,weatherlink.com 1.10,2013-04-20 21:00:00,
2013-04-20 17:15:00,45.1,27.0,30.24,NNW,347,11.0,-999.0,50,-99.99,,,0.01,weatherlink.com 1.10,2013-04-20 21:15:00,
2013-04-20 17:30:00,45.8,27.0,30.25,West,279,10.0,-999.0,48,-99.99,,,0.01,weatherlink.com 1.10,2013-04-20 21:30:00,
2013-04-20 17:45:00,45.0,27.0,30.25,WNW,285,7.0,-999.0,50,-99.99,,,0.01,weatherlink.com 1.10,2013-04-20 21:45:00,
2013-04-20 18:00:00,45.6,27.0,30.25,North,360,10.0,-999.0,49,-99.99,,,0.01,weatherlink.com 1.10,2013-04-20 22:00:00,
2013-04-20 18:15:00,45.0,27.0,30.26,WNW,282,10.0,-999.0,50,-99.99,,,0.01,weatherlink.com 1.10,2013-04-20 22:15:00,
2013-04-20 18:30:00,45.6,27.0,30.26,NW,319,7.0,-999.0,49,-99.99,,,0.01,weatherlink.com 1.10,2013-04-20 22:30:00,
2013-04-20 18:45:00,45.0,27.0,30.27,WNW,302,7.0,-999.0,50,-99.99,,,0.01,weatherlink.com 1.10,2013-04-20 22:45:00,
2013-04-20 19:00:00,45.6,28.0,30.27,NW,319,7.0,-999.0,50,-99.99,,,0.01,weatherlink.com 1.10,2013-04-20 23:00:00,
2013-04-20 19:15:00,45.5,28.0,30.27,WNW,288,11.0,-999.0,50,-99.99,,,0.01,weatherlink.com 1.10,2013-04-20 23:15:00,
2013-04-20 19:30:00,45.1,27.0,30.28,NW,324,12.0,-999.0,50,-99.99,,,0.01,weatherlink.com 1.10,2013-04-20 23:30:00,
2013-04-20 19:45:00,44.5,28.0,30.28,WNW,302,11.0,-999.0,52,-99.99,,,0.01,weatherlink.com 1.10,2013-04-20 23:45:00,
2013-04-20 20:00:00,43.7,27.0,30.29,NNW,327,4.0,-999.0,53,-99.99,,,0.01,weatherlink.com 1.10,2013-04-21 00:00:00,
2013-04-20 20:15:00,43.3,27.0,30.30,NW,315,7.0,-999.0,53,-99.99,,,0.01,weatherlink.com 1.10,2013-04-21 00:15:00,
2013-04-20 20:30:00,42.9,28.0,30.30,NNW,336,5.0,-999.0,55,-99.99,,,0.01,weatherlink.com 1.10,2013-04-21 00:30:00,
2013-04-20 20:45:00,42.6,27.0,30.32,NNW,334,4.0,-999.0,55,-99.99,,,0.01,weatherlink.com 1.10,2013-04-21 00:45:00,
2013-04-20 21:00:00,42.5,27.0,30.32,NNW,332,6.0,-999.0,55,-99.99,,,0.01,weatherlink.com 1.10,2013-04-21 01:00:00,
2013-04-20 21:15:00,42.4,27.0,30.33,NNW,332,5.0,-999.0,55,-99.99,,,0.01,weatherlink.com 1.10,2013-04-21 01:15:00,
2013-04-20 21:30:00,42.4,27.0,30.34,NNW,332,5.0,-999.0,55,-99.99,,,0.01,weatherlink.com 1.10,2013-04-21 01:30:00,
2013-04-20 21:45:00,42.2,27.0,30.35,NNW,332,4.0,-999.0,56,-99.99,,,0.01,weatherlink.com 1.10,2013-04-21 01:45:00,
2013-04-20 22:00:00,42.3,27.0,30.35,NNW,332,4.0,-999.0,56,-99.99,,,0.01,weatherlink.com 1.10,2013-04-21 02:00:00,
2013-04-20 22:15:00,42.2,27.0,30.36,NNW,332,5.0,-999.0,56,-99.99,,,0.01,weatherlink.com 1.10,2013-04-21 02:15:00,
2013-04-20 22:30:00,41.7,27.0,30.36,NNW,332,3.0,-999.0,57,-99.99,,,0.01,weatherlink.com 1.10,2013-04-21 02:30:00,
2013-04-20 22:45:00,41.8,28.0,30.36,North,350,6.0,-999.0,58,-99.99,,,0.01,weatherlink.com 1.10,2013-04-21 02:45:00,
2013-04-20 23:00:00,41.9,28.0,30.36,North,355,4.0,-999.0,58,-99.99,,,0.01,weatherlink.com 1.10,2013-04-21 03:00:00,
2013-04-20 23:15:00,41.6,28.0,30.37,North,355,3.0,-999.0,59,-99.99,,,0.01,weatherlink.com 1.10,2013-04-21 03:15:00,
2013-04-20 23:30:00,41.3,28.0,30.36,North,360,6.0,-999.0,60,-99.99,,,0.01,weatherlink.com 1.10,2013-04-21 03:30:00,
2013-04-20 23:45:00,40.0,28.0,30.36,North,360,7.0,-999.0,63,-99.99,,,0.01,weatherlink.com 1.10,2013-04-21 03:45:00,